Location: *
(50.2903°S, 172.5375°W)
Time: 07:38:08
(UTC+00:00)

Cosmos 990 Rocket - Pass Details

Date: 17 November 2019
Orbit: 746 x 770 km, 74.0° (Epoch: 14 December)

Event Time Altitude Azimuth Distance (km) Brightness Sun altitude
Rises 14:14:26 0° 209° (SSW) 3,241 7.5 -10.2°
Reaches altitude 10° 14:16:54 10° 215° (SW) 2,306 6.6 -10.0°
Maximum altitude 14:21:50 44° 285° (WNW) 1,047 4.3 -9.4°
Drops below altitude 10° 14:26:42 10° 356° (N) 2,274 6.0 -8.9°
Sets 14:29:07 0° 2° (N) 3,190 6.8 -8.6°
